Location: ???????
(55.4362°N, 38.1183°E)
Time: 13:41:33
(UTC+00:00)

Cosmos 2219 Rocket - Pass Details

Date: 23 October 2021
Orbit: 826 x 848 km, 71.0° (Epoch: 01 December)

Event Time Altitude Azimuth Distance (km) Brightness Sun altitude
Exits shadow 22:12:04 14° 25° (NNE) 2,190 4.9 -44.7°
Drops below altitude 10° 22:13:33 10° 39° (NE) 2,466 5.2 -44.7°
Sets 22:17:00 0° 60° (ENE) 3,406 5.9 -44.5°
